Weather History for KLUF - October, 2012

Change the Weather History Date:

Tuesday, October 9, 2012

  Actual Average Record
Temperature  
Mean Temperature 78 °F -  
Max Temperature 90 °F 93 °F 106 °F (1991)
Min Temperature 66 °F 56 °F 42 °F (1949)
Cooling Degree Days 13    
Growing Degree Days 28 (Base 50)    
Moisture  
Dew Point 50 °F    
Average Humidity 37    
Maximum Humidity 50    
Minimum Humidity 25    
Precipitation  
Precipitation 0.00 in - - ()
Sea Level Pressure  
Sea Level Pressure 29.84 in    
Wind  
Wind Speed 2 mph (NW)    
Max Wind Speed 7 mph    
Max Gust Speed -    
Visibility 10 miles    
Events      
Averages and records for this station are not official NWS values.
T = Trace of Precipitation, MM = Missing Value Source: NWS Daily Summary

Daily Weather History Graph

Daily Weather History Graph

Search for Another Location

Airport or City:

Trip Planner

Search our weather history database for the weather conditions in past years. The results will help you decide how hot, cold, wet, or windy it might be!

Date:

Astronomy

Oct. 09, 2012 Rise Set
Actual Time 6:30 AM MST 6:02 PM MST
Civil Twilight 6:05 AM MST 6:27 PM MST
Nautical Twilight 5:36 AM MST 6:56 PM MST
Astronomical Twilight 5:07 AM MST 7:25 PM MST
Moon 12:27 AM MST (10/9) 2:16 PM MST (10/9)
Length of Visible Light 12h 22m
Length of Day
11h 32m
Waning Crescent, 35% of the Moon is Illuminated
Oct 9
Waning Crescent
Oct 15
New
Oct 21
First Quarter
Oct 29
Full
Nov 6
Last Quarter

Hourly Weather History & Observations

Time (MST) Temp. Dew Point Humidity Pressure Visibility Wind Dir Wind Speed Gust Speed Precip Events Conditions
12:55 AM 73.6 °F 47.3 °F 39% 29.83 in 10.0 mi ESE 3.5 mph - N/A   Clear
1:55 AM 72.0 °F 49.6 °F 45% 29.83 in 10.0 mi Calm Calm - N/A   Clear
2:55 AM 71.1 °F 48.7 °F 45% 29.83 in 10.0 mi Calm Calm - N/A   Clear
3:55 AM 69.1 °F 48.7 °F 48% 29.83 in 10.0 mi Calm Calm - N/A   Clear
4:55 AM 69.4 °F 48.2 °F 47% 29.84 in 10.0 mi Calm Calm - N/A   Clear
5:55 AM 68.0 °F 47.7 °F 48% 29.85 in 10.0 mi ESE 3.5 mph - N/A   Clear
6:55 AM 66.4 °F 46.9 °F 50% 29.88 in 10.0 mi NNW 6.9 mph - N/A   Clear
7:55 AM 72.0 °F 48.6 °F 43% 29.91 in 10.0 mi North 4.6 mph - N/A   Clear
8:55 AM 76.6 °F 50.2 °F 39% 29.92 in 10.0 mi Calm Calm - N/A   Clear
9:26 AM 76.6 °F 50.2 °F 39% 29.92 in 10.0 mi NNE 3.5 mph - N/A   Clear
9:55 AM 81.7 °F 51.3 °F 35% 29.91 in 10.0 mi NNE 5.8 mph - N/A   Clear
10:55 AM 84.6 °F 52.2 °F 33% 29.90 in 10.0 mi Calm Calm - N/A   Clear
11:55 AM 86.4 °F 50.2 °F 29% 29.88 in 10.0 mi Variable 4.6 mph - N/A   Clear
12:55 PM 88.2 °F 51.3 °F 28% 29.84 in 10.0 mi WNW 4.6 mph - N/A   Clear
1:55 PM 89.6 °F 52.9 °F 28% 29.81 in 10.0 mi Calm Calm - N/A   Clear
2:55 PM 90.5 °F 51.8 °F 27% 29.80 in 10.0 mi SE 6.9 mph - N/A   Clear
3:55 PM 90.9 °F 52.2 °F 27% 29.78 in 10.0 mi West 6.9 mph - N/A   Clear
4:55 PM 90.1 °F 50.2 °F 25% 29.77 in 10.0 mi West 3.5 mph - N/A   Clear
5:55 PM 89.1 °F 49.5 °F 26% 29.78 in 10.0 mi West 3.5 mph - N/A   Clear
6:55 PM 85.5 °F 50.2 °F 29% 29.80 in 10.0 mi Calm Calm - N/A   Clear
7:55 PM 80.6 °F 51.3 °F 36% 29.81 in 10.0 mi Calm Calm - N/A   Clear
8:55 PM 78.8 °F 50.5 °F 37% 29.83 in 10.0 mi NW 4.6 mph - N/A   Clear
9:55 PM 77.5 °F 47.7 °F 35% 29.84 in 10.0 mi Calm Calm - N/A   Clear
10:55 PM 74.8 °F 49.1 °F 40% 29.84 in 10.0 mi Calm Calm - N/A   Clear
11:55 PM 74.3 °F 47.7 °F 39% 29.85 in 10.0 mi SSW 3.5 mph - N/A   Clear